Wind_Speed
40 40 37 33 28 25 24 22 20 20 24 26 27 26 23 19 22 19 17 16 16 14 17 10 12 13 8 7 6 4 4 3 2 5 2 2 5 1 7 8 10 9 10
51 44 42 38 35 33 31 27 24 23 22 25 28 30 29 24 23 21 24 24 20 17 18 16 15 15 13 15 12 10 7 3 4 5 4 7 6 1 1 3 4 7 10
55 52 47 42 41 39 36 34 30 26 26 25 26 28 28 29 27 25 25 24 25 25 24 23 23 20 18 18 17 17 16 12 9 7 5 6 6 5 4 6 8 11 12
59 56 53 49 46 44 40 38 37 31 28 28 28 28 29 32 33 32 31 30 29 31 31 31 28 25 24 21 19 17 18 18 17 18 19 17 11 10 17 12 9 12 12
63 59 55 53 48 43 41 41 39 35 32 31 29 29 28 29 32 34 35 38 40 40 40 38 35 30 28 27 28 27 23 20 17 18 19 15 17 21 15 15 17 19 19
65 64 61 54 47 43 41 40 36 36 35 34 32 31 30 31 33 34 32 35 39 40 40 44 40 38 35 33 33 30 29 25 21 20 23 21 22 23 24 24 24 25 25
60 65 64 61 53 45 42 40 35 36 36 36 37 35 35 36 37 35 34 34 34 33 33 34 39 43 43 40 38 35 34 29 27 30 25 24 27 27 26 28 25 25 23
45 60 63 65 61 56 46 44 41 38 37 39 38 37 36 39 38 37 34 33 34 32 28 27 30 33 35 37 37 43 43 39 39 37 33 29 28 28 26 28 29 30 29
65 68 71 67 63 59 50 46 43 42 40 40 40 40 41 40 34 30 28 27 30 32 30 34 35 31 32 30 33 35 39 43 35 34 37 37 33 30 27 27 29 36 36
82 81 70 69 59 55 51 49 43 48 46 46 43 40 38 34 28 28 29 30 33 39 40 43 43 37 36 31 33 34 33 34 38 41 42 39 36 35 32 30 26 28 33
76 73 70 65 58 55 50 49 46 54 51 50 45 40 37 41 46 47 43 37 40 41 39 45 44 39 38 39 40 38 36 32 33 37 39 40 40 41 42 39 36 34 37
76 76 74 66 63 52 53 59 42 61 55 55 53 48 43 45 47 46 47 52 48 45 46 48 49 46 44 44 46 45 43 43 42 42 43 47 47 49 49 49 46 44 46
73 72 77 67 66 59 62 54 55 60 62 57 59 50 49 63 56 57 51 52 52 54 50 49 48 55 58 58 58 54 51 51 49 50 49 52 54 56 56 56 53 52 56
82 80 76 72 74 78 81 73 59 61 63 65 63 54 52 57 61 64 55 59 58 64 60 60 52 60 62 66 68 60 57 57 57 55 56 58 58 58 58 57 57 63 61
84 85 81 81 84 87 89 83 73 64 68 71 67 61 62 66 74 76 71 66 65 67 67 66 61 64 67 69 68 69 63 60 64 61 62 63 61 60 63 67 70 65 59
74 87 90 86 87 94 96 93 84 82 72 75 72 71 70 68 72 75 75 73 70 72 76 78 78 78 75 74 72 64 63 67 67 68 67 68 67 66 62 65 66 68 68
78 83 90 95 93 97 96 98 97 90 87 78 82 77 83 84 87 87 79 79 76 77 80 82 80 79 80 82 83 78 75 74 75 70 72 72 69 67 64 68 70 71 73
77 86 88 95 97 100 97 101 101 96 91 90 88 89 86 85 84 86 90 87 83 84 85 87 82 82 89 91 86 89 84 81 83 86 85 85 85 83 87 88 87 91 90
74 80 86 90 98 97 101 99 103 102 101 95 89 88 96 93 93 94 94 88 91 90 92 92 91 89 92 93 91 89 88 91 89 91 94 94 93 95 94 95 95 96 97
78 80 80 80 88 96 103 104 107 109 107 104 100 87 87 89 90 93 92 88 96 87 85 93 94 90 99 96 98 99 97 96 99 99 100 102 104 105 105 107 108 108 109
83 86 87 85 86 94 104 106 106 106 111 113 108 106 106 111 95 93 102 105 96 98 101 101 103 106 108 110 108 109 105 106 109 111 112 112 112 111 111 110 113 115 118
89 91 92 90 91 91 102 105 109 108 110 112 117 117 112 110 114 117 107 106 102 106 114 113 114 107 104 115 116 114 115 114 116 117 118 119 119 119 120 121 119 118 118
87 93 97 96 94 96 99 102 106 111 113 112 114 120 127 128 125 124 122 121 120 122 122 120 125 124 125 125 125 121 118 121 120 119 123 125 127 127 127 128 128 128 127
91 91 93 97 98 99 103 106 110 114 117 120 121 121 122 129 133 136 135 135 137 134 133 129 127 131 131 129 131 133 129 129 132 129 129 129 131 135 137 136 136 135 137
94 95 99 100 98 98 103 106 107 110 115 121 125 126 127 128 130 135 139 141 143 142 141 141 141 142 141 140 140 139 139 139 141 141 141 142 142 144 144 145 145 145 147
100 99 100 102 103 105 101 102 100 104 110 114 119 124 131 133 133 135 140 141 142 144 145 147 143 144 145 145 147 149 149 150 150 153 153 152 152 153 152 155 155 158 159
Wind_Direction
258 254 258 260 263 263 262 260 255 257 253 255 257 258 260 254 251 257 252 254 250 260 264 276 278 291 283 280 275 291 342 66 76 27 178 350 345 304 26 39 49 23 24
262 256 256 261 259 263 268 266 258 255 258 253 252 259 257 255 251 247 244 251 247 259 258 261 268 274 271 277 269 282 283 269 248 246 285 331 337 352 15 357 358 15 2
259 259 259 256 262 264 267 271 265 257 257 256 247 252 252 251 250 250 247 250 254 254 257 263 261 260 257 260 272 278 276 271 275 274 261 268 275 287 310 226 257 301 339
252 253 256 255 253 258 263 267 270 263 254 254 252 250 247 248 250 252 251 253 253 250 252 253 254 257 259 255 262 268 273 272 265 275 287 288 287 280 306 310 304 321 329
251 250 250 254 257 255 255 260 264 265 254 251 249 244 244 246 249 249 250 252 252 254 255 254 256 258 264 258 258 258 256 262 265 269 268 270 281 284 280 282 278 275 288
250 250 249 250 250 256 254 255 259 261 256 251 247 241 242 243 246 250 253 254 255 258 257 248 253 255 255 251 259 265 254 249 253 252 257 261 273 282 289 289 289 290 289
254 251 248 246 243 246 248 254 251 253 252 251 248 245 244 243 247 250 251 251 254 259 259 256 257 259 260 257 257 261 259 262 258 266 260 267 269 272 277 282 284 282 287
252 248 249 247 243 243 245 245 248 243 246 248 251 251 251 251 251 255 254 259 257 254 258 267 268 270 269 268 265 255 251 261 260 262 272 268 279 275 283 284 280 280 287
218 235 228 239 242 239 242 245 249 244 241 241 245 247 247 249 252 251 258 259 260 257 249 270 275 284 280 276 275 264 259 256 261 265 267 269 265 271 273 288 289 274 280
230 236 237 236 236 239 239 245 256 251 244 242 247 243 243 249 255 261 249 258 266 259 260 271 268 262 263 268 254 254 252 254 255 258 264 263 262 265 264 279 288 282 280
233 234 235 235 225 225 232 235 228 250 243 243 243 239 256 258 263 263 254 253 265 260 268 262 259 261 258 261 262 262 256 255 254 252 256 262 267 266 270 279 284 278 279
230 230 229 228 220 215 217 226 232 240 244 241 239 242 247 261 257 256 255 262 263 257 258 262 254 258 265 267 269 264 262 261 262 266 267 266 270 271 274 277 282 287 284
228 227 230 222 215 209 218 214 221 231 233 234 239 236 250 257 255 259 265 261 261 256 253 256 258 260 265 268 272 275 272 272 272 277 280 276 277 277 277 278 280 285 288
228 227 226 217 208 210 218 225 224 225 226 233 247 244 248 250 247 257 250 254 262 257 255 257 266 267 264 267 269 270 269 271 274 274 274 277 276 276 280 282 283 284 285
226 224 223 221 209 211 217 220 221 219 229 228 237 240 257 246 251 254 251 253 257 255 255 256 261 266 268 270 271 273 271 268 270 275 277 276 274 273 278 282 283 277 280
225 226 222 219 216 216 217 220 222 222 224 223 235 247 239 241 245 249 251 252 246 247 251 255 260 267 264 266 265 262 266 273 273 278 278 275 278 277 277 275 274 272 269
229 226 226 225 223 224 221 224 222 221 222 230 236 240 241 243 246 247 249 247 248 254 258 257 261 262 262 264 265 263 260 263 264 272 272 270 269 265 263 269 269 271 268
229 232 228 225 224 224 225 223 222 220 224 231 235 237 239 244 243 248 247 248 249 252 254 257 261 265 263 262 262 264 262 266 264 263 266 269 267 267 264 269 268 272 273
229 229 230 232 227 225 228 227 222 223 227 230 235 244 246 251 248 251 248 249 250 254 258 261 260 265 263 263 263 262 264 265 267 268 266 265 268 268 271 269 270 271 273
227 228 228 231 229 227 226 229 228 228 230 230 231 235 244 243 247 247 249 257 254 251 251 254 256 261 263 262 261 264 265 266 265 266 267 269 270 268 270 273 272 273 273
231 236 232 230 232 232 230 230 232 235 233 231 233 235 237 243 242 245 250 250 248 248 250 256 258 261 262 263 265 264 267 268 268 268 269 269 270 270 271 273 276 276 275
233 234 236 232 232 235 234 233 235 239 239 236 235 236 236 240 243 242 243 247 248 253 255 257 259 258 258 264 263 263 264 265 266 267 268 269 270 271 272 273 274 277 277
234 234 236 239 235 234 234 235 237 240 242 244 244 241 241 242 242 244 246 247 250 253 256 259 259 258 256 259 261 264 266 267 267 269 269 269 269 270 271 273 275 276 277
235 236 237 241 244 241 238 238 239 240 242 244 246 248 248 247 247 246 247 248 250 253 254 254 257 260 262 261 261 262 263 265 266 265 267 269 270 270 272 274 275 274 275
237 239 240 242 245 249 248 245 243 242 243 244 245 247 248 250 252 252 251 252 253 255 256 258 259 260 261 262 261 263 264 265 266 269 270 272 271 270 271 272 274 276 277
247 249 247 247 248 249 249 253 253 250 248 248 249 250 250 250 252 252 253 254 255 256 258 260 263 262 263 265 265 266 266 266 268 268 268 269 271 272 274 273 274 277 277
Height
10993 10996 10998 11001 11003 11004 11005 11007 11009 11011 11012 11014 11015 11016 11017 11018 11019 11019 11019 11018 11019 11018 11017 11017 11016 11015 11014 11013 11012 11010 11008 11006 11006 11005 11004 11003 11001 11001 11000 10997 10995 10993 10992
10981 10987 10990 10992 10994 10996 10997 11000 11002 11003 11005 11007 11008 11009 11010 11012 11013 11013 11014 11014 11014 11013 11013 11012 11013 11012 11011 11010 11009 11009 11007 11006 11005 11004 11002 11001 11000 11000 10999 10997 10995 10994 10993
10970 10973 10978 10983 10985 10987 10990 10991 10994 10995 10997 10998 10999 11001 11003 11004 11004 11006 11007 11007 11008 11008 11007 11007 11007 11007 11006 11006 11005 11005 11005 11004 11003 11003 11002 11000 10997 10997 10997 10996 10994 10991 10990
10955 10960 10965 10969 10972 10976 10980 10983 10984 10986 10988 10989 10991 10993 10994 10995 10996 10998 10999 10999 10999 11000 10999 10998 10999 11000 11001 11001 10999 10999 10999 10999 10999 10998 10997 10996 10996 10994 10992 10992 10991 10989 10988
10939 10947 10952 10957 10962 10966 10970 10972 10975 10978 10978 10980 10982 10984 10985 10986 10987 10988 10988 10989 10988 10989 10991 10990 10993 10993 10993 10993 10992 10991 10989 10991 10992 10992 10991 10991 10991 10989 10988 10988 10986 10985 10985
10924 10931 10936 10946 10953 10957 10959 10961 10965 10967 10969 10970 10973 10975 10977 10978 10977 10978 10980 10980 10979 10979 10980 10982 10983 10985 10984 10983 10982 10983 10984 10983 10984 10984 10985 10986 10985 10984 10982 10982 10980 10978 10978
10907 10913 10921 10928 10937 10942 10947 10951 10953 10955 10958 10961 10961 10963 10965 10966 10966 10967 10968 10969 10970 10971 10972 10972 10973 10975 10975 10974 10975 10977 10978 10978 10978 10977 10978 10979 10979 10978 10976 10974 10974 10971 10971
10886 10891 10907 10914 10922 10928 10933 10938 10940 10943 10947 10949 10952 10954 10955 10956 10957 10958 10962 10962 10962 10965 10966 10967 10968 10969 10967 10965 10966 10964 10966 10968 10970 10968 10969 10969 10970 10971 10970 10968 10968 10966 10965
10871 10875 10895 10898 10906 10913 10921 10926 10929 10933 10936 10938 10940 10943 10943 10944 10948 10951 10953 10955 10955 10956 10958 10957 10956 10957 10955 10955 10954 10952 10954 10957 10960 10960 10960 10960 10961 10962 10961 10961 10960 10958 10959
10856 10863 10869 10879 10893 10901 10908 10914 10921 10926 10926 10927 10929 10931 10933 10937 10939 10942 10943 10944 10945 10944 10946 10947 10946 10945 10945 10942 10941 10941 10944 10946 10949 10950 10951 10951 10951 10952 10952 10951 10951 10951 10951
10834 10844 10853 10863 10875 10882 10893 10902 10912 10914 10914 10916 10918 10921 10923 10924 10928 10927 10929 10930 10932 10932 10934 10933 10935 10935 10935 10935 10933 10933 10935 10937 10938 10939 10940 10941 10940 10941 10942 10941 10940 10940 10940
10812 10822 10831 10844 10854 10864 10874 10880 10876 10879 10895 10904 10905 10908 10908 10912 10913 10913 10915 10916 10917 10918 10919 10920 10922 10921 10924 10924 10922 10924 10926 10928 10928 10928 10929 10930 10930 10930 10930 10930 10929 10928 10927
10791 10800 10811 10824 10837 10844 10851 10855 10859 10867 10879 10886 10890 10893 10894 10897 10900 10900 10900 10900 10902 10902 10902 10904 10906 10908 10910 10911 10911 10911 10912 10913 10915 10917 10917 10917 10916 10917 10916 10915 10914 10914 10913
10770 10780 10791 10803 10814 10819 10824 10831 10844 10853 10863 10866 10872 10875 10877 10878 10881 10882 10883 10884 10884 10883 10886 10887 10890 10892 10895 10895 10896 10898 10898 10899 10900 10900 10900 10901 10901 10900 10900 10900 10898 10898 10899
10746 10756 10767 10779 10789 10794 10800 10809 10819 10826 10834 10844 10850 10852 10855 10857 10861 10861 10863 10866 10866 10867 10868 10871 10873 10875 10878 10880 10880 10880 10881 10882 10882 10883 10884 10884 10885 10885 10883 10882 10881 10878 10879
10724 10734 10745 10755 10767 10775 10779 10786 10795 10806 10815 10821 10825 10826 10829 10834 10836 10839 10842 10845 10847 10848 10850 10853 10854 10856 10860 10863 10864 10864 10865 10866 10865 10865 10867 10867 10868 10868 10868 10868 10865 10864 10863
10705 10712 10723 10734 10744 10751 10759 10763 10776 10784 10791 10799 10802 10805 10802 10805 10814 10819 10821 10822 10825 10828 10828 10831 10832 10836 10838 10840 10842 10844 10845 10846 10849 10851 10850 10850 10849 10848 10848 10849 10848 10848 10847
10680 10689 10699 10708 10719 10729 10734 10740 10751 10763 10768 10774 10779 10784 10783 10789 10792 10795 10799 10800 10802 10802 10805 10809 10812 10815 10817 10817 10820 10821 10823 10824 10826 10827 10827 10828 10828 10830 10828 10827 10827 10826 10826
10667 10673 10680 10690 10700 10711 10716 10723 10734 10739 10743 10751 10759 10763 10763 10763 10768 10769 10775 10777 10780 10782 10784 10787 10789 10791 10791 10794 10795 10797 10798 10799 10800 10801 10802 10803 10803 10803 10804 10804 10804 10803 10803
10651 10656 10663 10671 10679 10688 10696 10700 10707 10712 10722 10729 10735 10742 10744 10742 10746 10748 10750 10754 10756 10759 10761 10758 10759 10763 10765 10770 10772 10771 10773 10773 10772 10773 10775 10777 10777 10775 10778 10779 10779 10779 10777
10631 10634 10640 10651 10660 10667 10672 10678 10686 10692 10697 10703 10708 10710 10715 10716 10722 10723 10725 10731 10735 10731 10733 10734 10733 10735 10738 10744 10746 10746 10747 10748 10747 10744 10745 10747 10749 10748 10747 10751 10750 10749 10749
10617 10619 10622 10632 10639 10646 10653 10658 10665 10668 10672 10676 10680 10683 10681 10685 10691 10696 10696 10698 10706 10706 10706 10707 10705 10710 10710 10711 10714 10715 10714 10716 10718 10718 10717 10716 10717 10717 10717 10715 10715 10716 10717
10599 10603 10605 10611 10621 10627 10631 10636 10640 10642 10643 10646 10651 10656 10656 10660 10661 10666 10668 10670 10672 10674 10678 10677 10674 10677 10679 10682 10683 10683 10683 10685 10687 10688 10686 10685 10685 10686 10686 10684 10682 10682 10682
10578 10583 10588 10591 10596 10604 10608 10611 10615 10615 10616 10617 10621 10626 10628 10629 10630 10632 10633 10639 10638 10641 10644 10643 10645 10643 10644 10649 10653 10652 10654 10649 10648 10649 10649 10653 10655 10655 10652 10653 10648 10647 10642
10561 10564 10565 10568 10572 10575 10580 10583 10587 10590 10594 10594 10594 10598 10599 10601 10603 10604 10605 10608 10608 10611 10614 10611 10612 10614 10615 10616 10613 10615 10620 10614 10606 10616 10620 10618 10617 10611 10611 10610 10608 10610 10611
10546 10550 10553 10554 10554 10555 10557 10560 10565 10567 10568 10569 10570 10571 10573 10575 10574 10572 10571 10573 10575 10575 10577 10577 10579 10578 10578 10580 10580 10580 10578 10578 10578 10576 10576 10578 10579 10577 10576 10574 10575 10573 10570